Regional Weather Roundup
Issued by NWS

Home | Current Version | Previous Version | Text Only | Print | Product List | Glossary Off
Versions: 1 2 3 4 5 6 7 8 9 10 11 12 13 14 15 16 17 18 19 20 21 22 23 24 25 26 27 28 29 30 31 32 33 34 35 36 37 38 39 40 41 42 43 44 45 46 47 48 49

000
ASUS45 KSLC 032010
RWRUT

UTAH REGIONAL WEATHER ROUNDUP
NATIONAL WEATHER SERVICE SALT LAKE CITY UT
200 PM MDT FRI JUL 03 2015

UTZ001>011-023>025-032100-

NORTHERN UTAH

CITY           SKY/WX    TMP DP  RH WIND       PRES   REMARKS
BRIGHAM CITY   SUNNY     93  38  14 SW5       30.01S
HILL AFB       SUNNY     93  43  18 SW6       30.05F
LOGAN          SUNNY     92  43  18 SW5       30.01F
OGDEN          SUNNY     94  40  15 W6        30.01F HX  90
PROVO AIRPORT  MOSUNNY   93  48  21 SW5       30.03F HX  90
SALT LAKE CITY MOSUNNY   97  42  15 VRB7      29.98F HX  93
VERNAL         MOSUNNY   91  40  16 VRB5      30.07S
WENDOVER       MOSUNNY   99  45  15 SE8       30.00F HX  94
HEBER CITY     MOSUNNY   93  36  13 N5        30.10F
WEST JORDAN    SUNNY     95  45  17 NW8       30.03F HX  91

$$

UTZ012>022-026-027-032100-

SOUTHERN/CENTRAL UTAH

CITY           SKY/WX    TMP DP  RH WIND       PRES   REMARKS
BLANDING       SUNNY     84  52  33 SE5       30.22F
BRYCE CANYON   PTSUNNY   80  50  34 SW9       30.29F
CEDAR CITY     PTSUNNY   90  42  18 N8        30.12F
DELTA          SUNNY     94  36  13 W6        30.04F HX  90
HANKSVILLE     MOSUNNY   95  39  14 S7        30.01F HX  91
MILFORD        CLOUDY    88  46  23 SE6       30.08F
MOAB/CYNLANDS  SUNNY     98  43  15 VRB3      29.97F HX  94
PRICE          SUNNY     95  38  13 SW9       30.09F HX  90
ST GEORGE      PTCLDY   100  54  20 N3        29.90F HX  98
KANAB          PTSUNNY   93  54  26 S5        30.10F HX  91

$$

REGIONAL REPORTS     COLORADO/ARIZONA

CITY           SKY/WX    TMP DP  RH WIND       PRES   REMARKS
CRAIG, CO      SUNNY     91  41  17 NE13      30.14F
GRAND JUNCTION MOSUNNY   91  50  24 VRB6      30.01F
RIFLE          MOSUNNY   90  47  22 NW8       30.06F
MONTROSE       MOSUNNY   92  49  22 N9        30.10F
CORTEZ         SUNNY     86  51  29 W9        30.15F
PAGE, AZ       CLOUDY    88  52  29 NW5       30.02F
GRAND CANYON     N/A     82  49  31 MISG      30.22
KINGMAN        MOSUNNY   97  50  20 SW15G25   29.99F HX  94
FLAGSTAFF      CLOUDY    77  54  44 SW8       30.28S

$$

REGIONAL REPORTS    NEVADA/IDAHO/WYOMING

CITY           SKY/WX    TMP DP  RH WIND       PRES   REMARKS
LAS VEGAS, NV  PTSUNNY  104  50  16 S7G22     29.82F HX 101
ELY            PTSUNNY   90  42  18 NE8       30.16F
ELKO           PTSUNNY   83  53  35 SW14      30.09F
POCATELLO, ID  SUNNY     94  46  19 W12       30.01F HX  90
BURLEY         SUNNY     91  47  21 W9G17     29.98F
EVANSTON, WY   MOSUNNY   85  36  17 SW10G17   30.23F
ROCK SPRINGS   SUNNY     83  35  18 VRB3      30.19F
KEMMERER       MOSUNNY   86  32  14 NW9G21    30.24F

$$


USA.gov is the U.S. government's official web portal to all federal, state and local government web resources and services.